Location: Unspecified
(0.0000°N, 0.0000°E)
Time: 09:09:34
(UTC+00:00)

Vanguard 2 - All Passes

Search period start: 22 July 2018 00:00
Search period end: 01 August 2018 00:00
Orbit: 553 x 2939 km, 32.9° (Epoch: 21 July)

Date Brightness Start Highest point End Pass type
(mag) Time Alt. Az. Time Alt. Az. Time Alt. Az.
22 Jul - 00:14:40 10° NW 00:30:05 48° NNE 00:40:14 10° E visible
22 Jul - 02:28:14 10° WNW 02:41:18 63° SW 02:49:02 10° SE visible
22 Jul - 04:47:37 10° WSW 04:50:12 12° SW 04:52:29 10° SSW visible
22 Jul - 11:23:50 10° SSE 11:25:25 11° SE 11:27:09 10° ESE daylight
22 Jul - 13:27:27 10° SW 13:33:40 77° SE 13:44:21 10° ENE daylight
22 Jul - 15:36:34 10° W 15:44:33 35° NNW 15:56:49 10° NE daylight
22 Jul - 17:50:56 10° NW 17:59:12 18° N 18:09:11 10° NNE daylight
22 Jul - 20:07:52 10° NNW 20:17:19 16° N 20:26:55 10° NE visible
22 Jul - 22:20:37 10° NNW 22:34:43 28° NNE 22:46:14 10° ENE visible
23 Jul - 00:32:43 10° NW 00:48:44 63° NNE 00:58:51 10° ESE visible
23 Jul - 02:47:19 10° WNW 02:59:16 44° SW 03:06:39 10° SSE visible
23 Jul - 11:39:36 10° S 11:43:22 20° SE 11:48:19 10° E daylight
23 Jul - 13:45:29 10° WSW 13:51:49 73° NNW 14:02:45 10° NE daylight
23 Jul - 15:55:49 10° WNW 16:03:31 27° NNW 16:14:34 10° NNE daylight
23 Jul - 18:11:30 10° NW 18:19:04 16° N 18:27:46 10° NNE visible
23 Jul - 20:26:44 10° NNW 20:37:23 18° NNE 20:47:55 10° NE visible
23 Jul - 22:38:31 10° NW 22:53:56 36° NNE 23:05:56 10° E visible
24 Jul - 00:50:58 10° NW 01:07:10 82° NE 01:17:10 10° ESE visible
24 Jul - 03:06:54 10° W 03:17:12 31° SW 03:24:01 10° SSE visible
24 Jul - 11:56:39 10° SSW 12:01:13 33° SE 12:07:55 10° ENE daylight
24 Jul - 14:03:49 10° WSW 14:10:12 50° NNW 14:20:51 10° NE daylight
24 Jul - 16:15:34 10° WNW 16:22:43 21° NNW 16:32:17 10° NNE daylight
24 Jul - 18:31:52 10° NNW 18:39:05 14° N 18:47:09 10° NNE visible
24 Jul - 20:45:03 10° NNW 20:57:13 22° NNE 21:08:52 10° ENE visible
24 Jul - 22:56:25 10° NW 23:12:54 45° NNE 23:25:10 10° E visible
25 Jul - 01:09:28 10° WNW 01:25:24 78° SW 01:35:13 10° SE visible
25 Jul - 03:27:11 10° W 03:35:12 21° SW 03:41:02 10° S visible
25 Jul - 12:14:10 10° SW 12:19:06 56° SE 12:26:53 10° ENE daylight
25 Jul - 14:22:31 10° W 14:28:49 35° NNW 14:38:42 10° NE daylight
25 Jul - 16:35:48 10° NW 16:42:08 16° N 16:50:02 10° NNE daylight
25 Jul - 18:51:33 10° NNW 18:59:11 15° N 19:07:33 10° NE visible
25 Jul - 21:03:05 10° NNW 21:16:47 27° NNE 21:29:28 10° ENE visible
25 Jul - 23:14:23 10° NW 23:31:39 58° NNE 23:44:02 10° ESE visible
26 Jul - 01:28:18 10° WNW 01:43:31 59° SW 01:53:02 10° SE visible
26 Jul - 03:48:34 10° WSW 03:53:25 14° SW 03:57:23 10° S visible
26 Jul - 10:28:26 10° SSE 10:29:05 10° SE 10:29:45 10° SE daylight
26 Jul - 12:32:02 10° SW 12:37:06 88° NNW 12:45:23 10° NE daylight
26 Jul - 14:41:38 10° WNW 14:47:37 25° NNW 14:56:20 10° NNE daylight
26 Jul - 16:56:28 10° NNW 17:01:46 13° N 17:08:00 10° NNE daylight
26 Jul - 19:10:23 10° NNW 19:19:13 16° NNE 19:28:46 10° NE visible
26 Jul - 21:20:58 10° NNW 21:36:04 33° NNE 21:49:35 10° E visible
26 Jul - 23:32:31 10° NW 23:50:13 73° NE 00:02:33 10° ESE visible
27 Jul - 01:47:34 10° WNW 02:01:33 43° SW 02:10:38 10° SSE night (unlit)
27 Jul - 10:43:52 10° S 10:47:04 20° SE 10:50:58 10° E daylight
27 Jul - 12:50:13 10° WSW 12:55:19 54° NNW 13:03:31 10° NE daylight
27 Jul - 15:01:17 10° WNW 15:06:38 18° NNW 15:13:45 10° NNE daylight
27 Jul - 17:17:09 10° NNW 17:21:36 12° N 17:26:35 10° NNE daylight
27 Jul - 19:28:39 10° NNW 19:39:04 19° NNE 19:50:12 10° ENE visible
27 Jul - 21:38:48 10° NW 21:55:05 41° NNE 22:09:12 10° E visible
27 Jul - 23:50:50 10° NW 00:08:37 89° SSW 00:20:47 10° SE visible
28 Jul - 02:07:21 10° W 02:19:38 32° SW 02:28:02 10° SSE night (unlit)
28 Jul - 11:01:02 10° SSW 11:04:57 36° SE 11:10:16 10° ENE daylight
28 Jul - 13:08:48 10° W 13:13:46 34° NNW 13:21:20 10° NE daylight
28 Jul - 15:21:40 10° NW 15:25:51 14° N 15:30:54 10° NNE daylight
28 Jul - 17:37:00 10° NNW 17:41:32 12° N 17:46:32 10° NNE daylight
28 Jul - 19:46:35 10° NNW 19:58:39 23° NNE 20:11:21 10° ENE visible
28 Jul - 21:56:41 10° NW 22:13:54 52° NNE 22:28:22 10° ESE visible
29 Jul - 00:09:26 10° WNW 00:26:51 71° SW 00:38:47 10° SE visible
29 Jul - 02:27:49 10° W 02:37:50 23° SW 02:45:10 10° S night (unlit)
29 Jul - 11:18:40 10° SW 11:22:54 69° SE 11:28:56 10° ENE daylight
29 Jul - 13:27:49 10° WNW 13:32:25 23° NNW 13:38:51 10° NNE daylight
29 Jul - 15:43:23 10° NNW 15:45:15 11° N 15:47:15 10° N daylight
29 Jul - 17:55:41 10° N 18:01:27 13° NNE 18:07:55 10° NE daylight
29 Jul - 20:04:22 10° NNW 20:17:57 29° NNE 20:32:00 10° E visible
29 Jul - 22:14:40 10° NW 22:32:32 65° NE 22:47:08 10° ESE visible
30 Jul - 00:28:24 10° WNW 00:45:03 55° SW 00:56:35 10° SE visible
30 Jul - 02:49:12 10° WSW 02:56:16 16° SW 03:01:53 10° S night (unlit)
30 Jul - 09:31:31 10° SSE 09:32:54 11° SE 09:34:20 10° SE daylight
30 Jul - 11:36:43 10° WSW 11:40:59 64° NNW 11:47:09 10° NE daylight
30 Jul - 13:47:32 10° NW 13:51:14 15° NNW 13:55:55 10° NNE daylight
30 Jul - 18:13:38 10° NNW 18:21:14 15° NNE 18:29:54 10° NE visible
30 Jul - 20:22:05 10° NNW 20:36:59 37° NNE 20:52:05 10° E visible
30 Jul - 22:32:49 10° NW 22:51:00 81° NE 23:05:36 10° ESE visible
31 Jul - 00:47:47 10° WNW 01:03:15 42° SW 01:14:12 10° SSE visible
31 Jul - 03:12:35 10° SW 03:14:57 11° SSW 03:17:08 10° SSW night (unlit)
31 Jul - 09:47:49 10° SSW 09:50:59 22° SE 09:54:29 10° E daylight
31 Jul - 11:55:10 10° W 11:59:15 35° NNW 12:04:58 10° NE daylight
31 Jul - 14:08:53 10° NNW 14:10:14 10° NNW 14:11:41 10° N daylight
31 Jul - 18:31:17 10° NNW 18:40:47 19° NNE 18:51:43 10° ENE visible
31 Jul - 20:39:51 10° NW 20:55:47 46° NNE 21:11:39 10° E visible
31 Jul - 22:51:11 10° WNW 23:09:23 82° SW 23:23:48 10° SE visible
